Starlink 33916

operational
NORAD ID: 63792 Int'l Des: 2025-091 Owner: SPXS Country: US Constellation: starlink
LEOCIRCULAR

Starlink 33916について

説明を読み込み中...

リアルタイム位置

3D地球を読み込み中...

次回通過

高度履歴

Altitude vs Time

uPlot chart will show altitude changes over time

軌道要素

1 63792U 25091T 25308.63548326 .00044602 00000-0 16190-2 0 9994
2 63792 43.0082 39.0363 0002501 270.4666 89.5899 15.27610025 29771
Epoch: Nov 4, 2025 • Age: 9 hours

現在のステータス

高度 482.4 km
速度 7.63 km/s
衛星直下点 2.59°N, 15.17°W
打ち上げ日 May 2, 2025
運用期間 0.5 years
タイプ internet

技術仕様

分類 Payload
質量 575.00 kg
乾燥質量 530.00 kg
総質量 575.00 kg
長さ 0.30 m
直径 4.10 m
スパン 29.00 m
形状 Box + pan
製造者 SPXS
バスタイプ Starlink V2MO
フェーズステータス In Orbit
所有者/国 SPXS/US

大規模コンステレーション

Loading constellations...